Regional Weather Roundup
Issued by NWS

Home | Current Version | Previous Version | Graphics & Text | Print | Product List | Glossary On
Versions: 1 2 3 4 5 6 7 8 9 10 11 12 13 14 15 16 17 18 19 20 21 22 23 24 25 26 27
000
ASUS45 KSLC 221710
RWRUT

UTAH REGIONAL WEATHER ROUNDUP
NATIONAL WEATHER SERVICE SALT LAKE CITY UT
1000 AM MST SUN JAN 22 2017

UTZ001>011-023>025-221800-

NORTHERN UTAH

CITY           SKY/WX    TMP DP  RH WIND       PRES   REMARKS
BRIGHAM CITY     N/A     24  21  91 W5        29.95F WCI  18
HILL AFB       PTSUNNY   28  19  67 SE7       29.93S WCI  21
LOGAN          PTSUNNY   18  18 100 CALM      29.94S
OGDEN          CLOUDY    29  20  69 S13       29.93S WCI  19
SALT LAKE CITY CLOUDY    31  23  72 SE15      29.95S WCI  20
TOOELE VALLEY  CLOUDY    36  27  69 S18G24    29.92R WCI  25
WENDOVER       CLOUDY    27  19  74 NE7       29.90S WCI  19
HEBER CITY     CLOUDY    19  16  86 CALM      29.97F
WEST JORDAN    CLOUDY    32  27  82 S14       29.97R WCI  22

$$

UTZ011>015-024>027-221800-

CENTRAL/NORTHEAST UTAH

CITY           SKY/WX    TMP DP  RH WIND       PRES   REMARKS
PROVO AIRPORT  CLOUDY    25  23  92 CALM      30.00S
MOAB/CANYONLAN PTSUNNY   35  26  69 SE8       30.09R WCI  29
DELTA          CLOUDY    32  25  74 S10       29.97R WCI  24
PRICE          CLOUDY    23  15  71 CALM      30.04R
ROOSEVELT      CLOUDY    23  21  93 CALM      30.13R
VERNAL         FOG       18  16  92 E3        30.10R VSB 3/4

$$

UTZ013>016-019>022-027-221800-

SOUTHERN UTAH

CITY           SKY/WX    TMP DP  RH WIND       PRES   REMARKS
BRYCE CANYON   CLOUDY    21  18  88 SE13      30.04F WCI   9
CEDAR CITY     CLOUDY    31  25  78 SW15G28   29.98F WCI  20
MILFORD        CLOUDY    34  25  69 S21       29.97S WCI  22
ST GEORGE      CLOUDY    41  34  75 E12       30.14S
HANKSVILLE     CLOUDY    32  27  80 MISG      30.11S
BLANDING       CLOUDY    24  19  84 NE7       30.22R WCI  15

$$

REGIONAL REPORTS     COLORADO/ARIZONA

CITY           SKY/WX    TMP DP  RH WIND       PRES   REMARKS
CRAIG, CO      CLOUDY    10   7  87 CALM      30.08R
GRAND JUNCTION SUNNY     33  25  72 SE6       30.13R WCI  28
RIFLE, CO      SUNNY     27  20  75 W3        30.13R
MONTROSE, CO   SUNNY     28  18  66 SE5       30.16R WCI  23
CORTEZ, CO     CLOUDY    16  15  96 CALM      30.18R
COLORADO CITY  LGT SNOW  34  32  93 SE8       30.15R WCI  27
PAGE, AZ       CLOUDY    37  26  64 NW3       30.13R
GRAND CANYON   LGT SNOW  26  25  96 S6        30.13S VSB 1   WCI  19
KINGMAN, AZ    CLOUDY    44  23  43 SE12      30.12R
FLAGSTAFF, AZ  LGT SNOW  26  25  96 SW10      30.14F FOG     WCI  16

$$

REGIONAL REPORTS    NEVADA/IDAHO/WYOMING

CITY           SKY/WX    TMP DP  RH WIND       PRES   REMARKS
LAS VEGAS, NV  LGT RAIN  45  38  76 S5        30.07R
ELY, NY        CLOUDY    30  22  72 S33G44    29.83F WCI  14
ELKO, NV       LGT SNOW  33  25  72 S14G28    29.74F WCI  23
POCATELLO, ID  MOSUNNY   36  21  54 S20       29.86F WCI  25
BURLEY, ID     CLOUDY    34  21  59 VRB3      29.80S
FORT BRIDGER,    N/A     19   9  63 S8        29.97S WCI   9
EVANSTON, WY   CLOUDY    16   9  74 SE6       29.92S WCI   7
ROCK SPRINGS,  CLOUDY    19  12  74 S6        29.98R WCI  11

$$




USA.gov is the U.S. government's official web portal to all federal, state and local government web resources and services.